DW6927 Weather Reports


Display with metric or nautical units.
time (UTC)temp
F
wind
direction
speed
MPH
gust
MPH
rain 1hr
in
rain 24hr
in
rain mn
in
humidity
%
barometer
mb
20260906235052 80 185 2.0 8.0 0.00 0.00 0.00 81 1012.3
20260906234604 80 0 0.0 1.0 0.00 0.00 0.00 80 1012.2
20260906234056 81 194 0.0 1.0 0.00 0.00 0.00 80 1012.1
20260906233557 81 0 0.0 1.0 0.00 0.00 0.00 80 1012.1
20260906233057 81 0 0.0 1.0 0.00 0.00 0.00 80 1011.9
20260906232554 81 0 0.0 2.0 0.00 0.00 0.00 80 1011.9
20260906232054 81 195 0.0 2.0 0.00 0.00 0.00 79 1011.9
20260906231609 81 194 0.0 2.0 0.00 0.00 0.00 79 1011.9
20260906231053 81 194 0.0 2.0 0.00 0.00 0.00 78 1011.9
20260906230553 81 194 0.0 2.0 0.00 0.00 0.00 78 1011.9
20260906230057 82 0 0.0 2.0 0.00 0.00 0.00 77 1011.7
20260906225554 82 0 0.0 2.0 0.00 0.00 0.00 77 1011.7
20260906225055 82 0 0.0 2.0 0.00 0.00 0.00 77 1011.5
20260906224607 82 194 0.0 2.0 0.00 0.00 0.00 76 1011.5
20260906224054 82 0 0.0 2.0 0.00 0.00 0.00 76 1011.6
20260906223555 82 195 1.0 2.0 0.00 0.00 0.00 75 1011.7
20260906223100 83 195 0.0 3.0 0.00 0.00 0.00 76 1011.7
20260906222553 83 194 1.0 3.0 0.00 0.00 0.00 76 1011.8
20260906222053 83 185 0.0 2.0 0.00 0.00 0.00 74 1011.7
20260906221558 83 0 0.0 2.0 0.00 0.00 0.00 73 1011.6
20260906221053 83 284 0.0 2.0 0.00 0.00 0.00 73 1011.6
20260906220553 83 0 0.0 2.0 0.00 0.00 0.00 73 1011.5
20260906220056 83 284 0.0 2.0 0.00 0.00 0.00 73 1011.6
20260906215553 84 284 0.0 4.0 0.00 0.00 0.00 73 1011.3
20260906215056 84 0 0.0 4.0 0.00 0.00 0.00 73 1011.4
20260906214605 84 225 0.0 3.0 0.00 0.00 0.00 73 1011.5
20260906214054 84 0 0.0 0.0 0.00 0.00 0.00 72 1011.4
20260906213554 84 0 0.0 0.0 0.00 0.00 0.00 72 1011.4
20260906213109 84 0 0.0 0.0 0.00 0.00 0.00 72 1011.4
20260906212554 85 0 0.0 1.0 0.00 0.00 0.00 72 1011.3
20260906212053 85 0 0.0 3.0 0.00 0.00 0.00 70 1011.2
20260906211607 85 0 1.0 3.0 0.00 0.00 0.00 70 1011.2
20260906211053 85 0 0.0 3.0 0.00 0.00 0.00 68 1011.2
20260906210554 86 0 0.0 7.0 0.00 0.00 0.00 69 1011.2
20260906210103 87 273 0.0 7.0 0.00 0.00 0.00 70 1011.2
20260906205553 87 0 1.0 7.0 0.00 0.00 0.00 67 1011.2
20260906205053 88 0 0.0 2.0 0.00 0.00 0.00 68 1011.3
20260906204604 88 0 0.0 2.0 0.00 0.00 0.00 68 1011.4
20260906204053 88 0 0.0 2.0 0.00 0.00 0.00 65 1011.5
20260906203553 88 129 0.0 3.0 0.00 0.00 0.00 66 1011.5
20260906203108 88 0 0.0 3.0 0.00 0.00 0.00 64 1011.6
20260906202552 88 0 0.0 3.0 0.00 0.00 0.00 63 1011.6
20260906202056 88 0 0.0 3.0 0.00 0.00 0.00 63 1011.6
20260906201606 88 0 1.0 3.0 0.00 0.00 0.00 64 1011.8
20260906201055 88 0 0.0 1.0 0.00 0.00 0.00 65 1011.8
20260906200553 88 0 0.0 2.0 0.00 0.00 0.00 65 1011.8
20260906200105 88 0 0.0 4.0 0.00 0.00 0.00 64 1011.8
20260906195553 88 0 1.0 4.0 0.00 0.00 0.00 65 1011.9
20260906195053 88 265 0.0 2.0 0.00 0.00 0.00 64 1012.0
20260906194606 88 0 0.0 2.0 0.00 0.00 0.00 65 1012.1
20260906194051 89 292 0.0 2.0 0.00 0.00 0.00 64 1012.0
20260906193551 89 292 0.0 3.0 0.00 0.00 0.00 65 1012.1
20260906193106 89 0 0.0 3.0 0.00 0.00 0.00 65 1012.0
20260906192553 89 0 0.0 3.0 0.00 0.00 0.00 68 1012.2
20260906192051 89 0 0.0 0.0 0.00 0.00 0.00 66 1012.3
20260906191558 89 0 0.0 2.0 0.00 0.00 0.00 65 1012.4
20260906191050 89 0 0.0 2.0 0.00 0.00 0.00 66 1012.5
20260906190553 89 0 0.0 2.0 0.00 0.00 0.00 67 1012.7
20260906190058 89 17 0.0 2.0 0.00 0.00 0.00 67 1012.9
20260906185552 90 0 0.0 2.0 0.00 0.00 0.00 66 1012.9
20260906185050 90 0 0.0 2.0 0.00 0.00 0.00 66 1013.0
20260906184609 90 0 0.0 2.0 0.00 0.00 0.00 67 1013.0
20260906184050 90 0 0.0 2.0 0.00 0.00 0.00 67 1013.1
20260906183551 90 314 0.0 2.0 0.00 0.00 0.00 68 1013.1
20260906183103 90 0 0.0 2.0 0.00 0.00 0.00 68 1013.1
20260906182551 90 179 0.0 4.0 0.00 0.00 0.00 67 1013.4
20260906182051 89 74 1.0 4.0 0.00 0.00 0.00 65 1013.2
20260906181601 89 0 0.0 3.0 0.00 0.00 0.00 65 1013.4
20260906181052 90 248 0.0 5.0 0.00 0.00 0.00 68 1013.2
20260906180551 90 292 0.0 5.0 0.00 0.00 0.00 64 1013.3
20260906180106 90 316 0.0 3.0 0.00 0.00 0.00 66 1013.3
20260906175550 89 0 0.0 3.0 0.00 0.00 0.00 69 1013.4
20260906175052 89 0 0.0 2.0 0.00 0.00 0.00 68 1013.5
20260906174603 89 350 0.0 0.0 0.00 0.00 0.00 67 1013.6
20260906174054 89 0 0.0 0.0 0.00 0.00 0.00 67 1013.7
20260906173550 89 0 0.0 0.0 0.00 0.00 0.00 70 1013.6
20260906173106 89 0 0.0 0.0 0.00 0.00 0.00 70 1013.7
20260906172551 89 0 0.0 0.0 0.00 0.00 0.00 72 1013.9
20260906172053 88 0 0.0 0.0 0.00 0.00 0.00 71 1013.9
20260906171601 88 0 0.0 0.0 0.00 0.00 0.00 72 1013.8
20260906171051 88 0 0.0 3.0 0.00 0.00 0.00 69 1013.8
20260906170550 88 0 0.0 3.0 0.00 0.00 0.00 71 1014.0
20260906170106 88 0 0.0 3.0 0.00 0.00 0.00 72 1014.0
20260906165550 88 0 0.0 3.0 0.00 0.00 0.00 73 1014.1
20260906165054 87 138 1.0 3.0 0.00 0.00 0.00 71 1014.2
20260906164617 87 0 0.0 3.0 0.00 0.00 0.00 72 1014.3
20260906164050 86 190 0.0 3.0 0.00 0.00 0.00 73 1014.3
20260906163551 86 207 0.0 3.0 0.00 0.00 0.00 72 1014.5
20260906163101 86 269 0.0 3.0 0.00 0.00 0.00 73 1014.4
20260906162551 86 225 1.0 3.0 0.00 0.00 0.00 72 1014.6
20260906162053 86 0 0.0 0.0 0.00 0.00 0.00 74 1014.6
20260906161605 86 0 0.0 0.0 0.00 0.00 0.00 75 1014.6
20260906161051 86 0 0.0 1.0 0.00 0.00 0.00 76 1014.7
20260906160550 86 0 0.0 2.0 0.00 0.00 0.00 78 1014.9
20260906160110 85 0 0.0 2.0 0.00 0.00 0.00 76 1014.7
20260906155550 85 0 0.0 0.0 0.00 0.00 0.00 78 1014.9
20260906155054 84 0 0.0 0.0 0.00 0.00 0.00 80 1014.7
20260906154603 84 0 0.0 0.0 0.00 0.00 0.00 79 1014.7
20260906154054 84 0 0.0 0.0 0.00 0.00 0.00 78 1014.8
20260906153550 84 0 0.0 0.0 0.00 0.00 0.00 81 1014.7
20260906153100 83 0 0.0 0.0 0.00 0.00 0.00 82 1014.7
20260906152551 83 0 0.0 0.0 0.00 0.00 0.00 81 1014.9
20260906152050 83 0 0.0 0.0 0.00 0.00 0.00 81 1014.9
20260906151603 82 0 0.0 0.0 0.00 0.00 0.00 81 1014.9
20260906151050 82 0 0.0 0.0 0.00 0.00 0.00 84 1015.0
20260906150551 82 0 0.0 0.0 0.00 0.00 0.00 85 1015.0
20260906150109 82 0 0.0 0.0 0.00 0.00 0.00 85 1015.0
20260906145551 82 0 0.0 0.0 0.00 0.00 0.00 83 1015.0
20260906145052 81 0 0.0 0.0 0.00 0.00 0.00 86 1015.2
20260906144621 81 0 0.0 0.0 0.00 0.00 0.00 87 1015.0
20260906144050 80 0 0.0 0.0 0.00 0.00 0.00 89 1014.9
20260906143551 79 0 0.0 0.0 0.00 0.00 0.00 91 1015.0
20260906143113 79 0 0.0 0.0 0.00 0.00 0.00 92 1015.1
20260906142550 78 0 0.0 0.0 0.00 0.00 0.00 93 1014.9
20260906142051 77 0 0.0 0.0 0.00 0.00 0.00 95 1014.9
20260906141606 77 0 0.0 0.0 0.00 0.00 0.00 95 1015.0
20260906141050 76 0 0.0 0.0 0.00 0.00 0.00 97 1015.1
20260906140550 76 0 0.0 0.0 0.00 0.00 0.00 98 1015.0
20260906140107 75 0 0.0 0.0 0.00 0.00 0.00 98 1015.2
20260906135553 75 0 0.0 0.0 0.00 0.00 0.00 98 1015.1
20260906135052 74 0 0.0 0.0 0.00 0.00 0.00 99 1015.2
20260906134600 74 0 0.0 0.0 0.00 0.00 0.00 99 1015.3
20260906134054 73 0 0.0 0.0 0.00 0.00 0.00 99 1015.4
20260906133550 72 0 0.0 0.0 0.00 0.00 0.00 99 1015.4
20260906133107 72 0 0.0 0.0 0.00 0.00 0.00 98 1015.3
20260906132554 71 0 0.0 0.0 0.00 0.00 0.00 98 1015.4
20260906132056 71 0 0.0 0.0 0.00 0.00 0.00 98 1015.5
20260906131610 71 0 0.0 0.0 0.00 0.00 0.00 98 1015.3
20260906131053 71 0 0.0 0.0 0.00 0.00 0.00 98 1015.3
20260906130553 71 0 0.0 0.0 0.00 0.00 0.00 98 1015.3
20260906130106 71 0 0.0 0.0 0.00 0.00 0.00 98 1015.2
20260906125553 71 0 0.0 0.0 0.00 0.00 0.00 98 1015.4
20260906125053 70 0 0.0 0.0 0.00 0.00 0.00 98 1015.5
20260906124604 70 0 0.0 0.0 0.00 0.00 0.00 98 1015.5
20260906124053 70 0 0.0 0.0 0.00 0.00 0.00 98 1015.4
20260906123554 70 0 0.0 0.0 0.00 0.00 0.00 98 1015.2
20260906123104 70 0 0.0 0.0 0.00 0.00 0.00 98 1015.0
20260906122553 70 0 0.0 0.0 0.00 0.00 0.00 98 1014.8
20260906122057 70 0 0.0 0.0 0.00 0.00 0.00 98 1014.7
20260906121602 69 0 0.0 0.0 0.00 0.00 0.00 98 1014.7
20260906121053 69 0 0.0 0.0 0.00 0.00 0.00 98 1014.6
20260906120556 69 0 0.0 0.0 0.00 0.00 0.00 98 1014.5
20260906120126 69 0 0.0 0.0 0.00 0.00 0.00 98 1014.5
20260906115553 69 0 0.0 0.0 0.00 0.00 0.00 98 1014.7
20260906115055 69 0 0.0 0.0 0.00 0.00 0.00 98 1014.4
20260906114600 69 0 0.0 0.0 0.00 0.00 0.00 98 1014.6
20260906114053 69 0 0.0 0.0 0.00 0.00 0.00 98 1014.4
20260906113553 69 0 0.0 0.0 0.00 0.00 0.00 98 1014.6
20260906113058 69 0 0.0 0.0 0.00 0.00 0.00 97 1014.5
20260906112553 69 0 0.0 0.0 0.00 0.00 0.00 97 1014.5
20260906112052 69 0 0.0 0.0 0.00 0.00 0.00 97 1014.4
20260906111555 69 0 0.0 0.0 0.00 0.00 0.00 97 1014.3
20260906111057 69 0 0.0 0.0 0.00 0.00 0.00 97 1014.3
20260906110553 69 0 0.0 0.0 0.00 0.00 0.00 97 1014.2
20260906110111 69 0 0.0 0.0 0.00 0.00 0.00 97 1014.2
20260906105553 69 0 0.0 0.0 0.00 0.00 0.00 97 1014.2
20260906105054 69 0 0.0 0.0 0.00 0.00 0.00 97 1014.1
20260906104559 69 0 0.0 0.0 0.00 0.00 0.00 97 1014.1
20260906104053 69 0 0.0 0.0 0.00 0.00 0.00 97 1014.0
20260906103553 69 0 0.0 0.0 0.00 0.00 0.00 97 1014.0
20260906103058 69 0 0.0 0.0 0.00 0.00 0.00 97 1013.9
20260906102551 69 0 0.0 0.0 0.00 0.00 0.00 97 1014.0
20260906102050 69 0 0.0 0.0 0.00 0.00 0.00 97 1013.9
20260906101604 69 0 0.0 0.0 0.00 0.00 0.00 97 1014.0
20260906101051 69 0 0.0 0.0 0.00 0.00 0.00 97 1014.0
20260906100551 69 0 0.0 0.0 0.00 0.00 0.00 97 1014.0
20260906100105 69 0 0.0 0.0 0.00 0.00 0.00 97 1014.1
20260906095550 69 0 0.0 0.0 0.00 0.00 0.00 97 1013.9
20260906095051 69 0 0.0 0.0 0.00 0.00 0.00 97 1014.1
20260906094557 69 0 0.0 0.0 0.00 0.00 0.00 97 1014.1
20260906094050 69 0 0.0 0.0 0.00 0.00 0.00 97 1014.2
20260906093552 69 0 0.0 0.0 0.00 0.00 0.00 97 1014.2
20260906093115 69 0 0.0 0.0 0.00 0.00 0.00 97 1014.1
20260906092550 69 0 0.0 0.0 0.00 0.00 0.00 97 1014.1
20260906092051 69 0 0.0 0.0 0.00 0.00 0.00 97 1014.1
20260906091557 69 0 0.0 0.0 0.00 0.00 0.00 97 1014.0
20260906091052 69 0 0.0 0.0 0.00 0.00 0.00 97 1014.2
20260906090550 69 0 0.0 0.0 0.00 0.00 0.00 97 1014.1
20260906090133 69 0 0.0 0.0 0.00 0.00 0.00 97 1014.2
20260906085549 69 0 0.0 0.0 0.00 0.00 0.00 97 1013.7
20260906085051 69 0 0.0 0.0 0.00 0.00 0.00 97 1013.6
20260906084558 69 0 0.0 0.0 0.00 0.00 0.00 97 1013.6
20260906084049 69 0 0.0 0.0 0.00 0.00 0.00 97 1013.8
20260906083551 69 0 0.0 0.0 0.00 0.00 0.00 97 1013.7
20260906083056 69 0 0.0 0.0 0.00 0.00 0.00 97 1013.7
20260906082550 69 0 0.0 0.0 0.00 0.00 0.00 97 1013.6
20260906082053 69 0 0.0 0.0 0.00 0.00 0.00 97 1013.5
20260906081557 69 0 0.0 0.0 0.00 0.00 0.00 97 1013.6
20260906081054 69 0 0.0 0.0 0.00 0.00 0.00 97 1013.4
20260906080550 69 0 0.0 0.0 0.00 0.00 0.00 96 1013.6
20260906080105 69 0 0.0 0.0 0.00 0.00 0.00 97 1013.6
20260906075550 69 0 0.0 0.0 0.00 0.00 0.00 97 1013.7
20260906075050 69 0 0.0 0.0 0.00 0.00 0.00 96 1013.8
20260906074600 69 0 0.0 0.0 0.00 0.00 0.00 96 1013.7
20260906074050 69 0 0.0 0.0 0.00 0.00 0.00 96 1013.8
20260906073551 69 0 0.0 0.0 0.00 0.00 0.00 96 1013.8
20260906073110 69 0 0.0 0.0 0.00 0.00 0.00 96 1013.6
20260906072553 69 0 0.0 0.0 0.00 0.00 0.00 96 1013.6
20260906072054 69 0 0.0 0.0 0.00 0.00 0.00 96 1013.5
20260906071605 69 0 0.0 0.0 0.00 0.00 0.00 96 1013.6
20260906071052 69 0 0.0 0.0 0.00 0.00 0.00 96 1013.6
20260906070553 69 0 0.0 0.0 0.00 0.00 0.00 96 1013.8
20260906070054 70 0 0.0 0.0 0.00 0.00 0.00 96 1013.8
20260906065553 70 0 0.0 0.0 0.00 0.00 0.00 96 1013.8
20260906065053 70 0 0.0 0.0 0.00 0.00 0.00 96 1013.7
20260906064600 70 0 0.0 0.0 0.00 0.00 0.00 96 1013.8
20260906064053 70 0 0.0 0.0 0.00 0.00 0.00 96 1014.0
20260906063552 70 0 0.0 0.0 0.00 0.00 0.00 96 1014.0
20260906063101 70 0 0.0 0.0 0.00 0.00 0.00 96 1014.0
20260906062552 70 0 0.0 0.0 0.00 0.00 0.00 96 1014.0
20260906062057 70 0 0.0 0.0 0.00 0.00 0.00 96 1014.1
20260906061556 70 0 0.0 0.0 0.00 0.00 0.00 96 1014.0
20260906061054 70 0 0.0 0.0 0.00 0.00 0.00 96 1014.1
20260906060553 70 0 0.0 0.0 0.00 0.00 0.00 96 1014.1
20260906060109 70 0 0.0 0.0 0.00 0.00 0.00 96 1014.0
20260906055553 70 0 0.0 0.0 0.00 0.00 0.00 96 1014.1
20260906055054 70 0 0.0 0.0 0.00 0.00 0.00 96 1014.2
20260906054600 70 0 0.0 0.0 0.00 0.00 0.00 95 1014.2
20260906054053 70 0 0.0 0.0 0.00 0.00 0.00 95 1014.3
20260906053552 70 0 0.0 0.0 0.00 0.00 0.00 96 1014.3
20260906053058 70 0 0.0 0.0 0.00 0.00 0.00 96 1014.3
20260906052552 70 0 0.0 0.0 0.00 0.00 0.00 96 1014.5
20260906052052 70 0 0.0 0.0 0.00 0.00 0.00 96 1014.4
20260906051556 70 0 0.0 0.0 0.00 0.00 0.00 96 1014.5
20260906051052 70 0 0.0 0.0 0.00 0.00 0.00 96 1014.6
20260906050552 70 0 0.0 0.0 0.00 0.00 0.00 96 1014.9
20260906050132 70 0 0.0 0.0 0.00 0.00 0.00 95 1014.8
20260906045553 70 0 0.0 0.0 0.00 0.00 0.00 95 1014.9
20260906045053 70 0 0.0 0.0 0.00 0.00 0.00 95 1015.1
20260906044559 70 0 0.0 0.0 0.00 0.00 0.00 95 1015.0
20260906044053 70 0 0.0 0.0 0.00 0.00 0.00 95 1014.9
20260906043552 70 0 0.0 0.0 0.00 0.00 0.00 95 1014.8
20260906043110 70 0 0.0 0.0 0.00 0.00 0.00 94 1014.6
20260906042552 70 0 0.0 0.0 0.00 0.00 0.00 95 1014.6
20260906042053 70 0 0.0 0.0 0.00 0.00 0.00 95 1014.6
20260906041606 70 0 0.0 0.0 0.00 0.00 0.00 95 1014.6
20260906041050 70 0 0.0 0.0 0.00 0.00 0.00 94 1014.2
20260906040550 71 0 0.0 0.0 0.00 0.00 0.00 94 1014.4
20260906040109 71 0 0.0 0.0 0.00 0.00 0.00 94 1014.4
20260906035550 71 0 0.0 0.0 0.00 0.00 0.00 94 1014.7
20260906035050 71 0 0.0 0.0 0.00 0.00 0.00 94 1014.5
20260906034559 71 0 0.0 0.0 0.00 0.00 0.00 94 1014.6
20260906034052 71 0 0.0 0.0 0.00 0.00 0.00 94 1014.5
20260906033550 71 0 0.0 0.0 0.00 0.00 0.00 94 1014.6
20260906033058 71 0 0.0 0.0 0.00 0.00 0.00 94 1014.8
20260906032550 71 0 0.0 0.0 0.00 0.00 0.00 94 1014.9
20260906032050 71 0 0.0 0.0 0.00 0.00 0.00 94 1014.9
20260906031604 71 0 0.0 0.0 0.00 0.00 0.00 93 1015.0
20260906031050 71 0 0.0 0.0 0.00 0.00 0.00 93 1014.9
20260906030550 71 0 0.0 0.0 0.00 0.00 0.00 93 1015.0
20260906030132 71 0 0.0 0.0 0.00 0.00 0.00 93 1014.8
20260906025550 72 0 0.0 0.0 0.00 0.00 0.00 93 1014.9
20260906025050 72 0 0.0 0.0 0.00 0.00 0.00 93 1014.8
20260906024557 72 0 0.0 0.0 0.00 0.00 0.00 92 1014.7
20260906024053 72 0 0.0 0.0 0.00 0.00 0.00 92 1014.7
20260906023551 72 0 0.0 0.0 0.00 0.00 0.00 92 1014.7
20260906023058 72 0 0.0 0.0 0.00 0.00 0.00 92 1014.6
20260906022553 72 0 0.0 0.0 0.00 0.00 0.00 92 1014.5
20260906022053 73 0 0.0 0.0 0.00 0.00 0.00 92 1014.4
20260906021610 73 0 0.0 0.0 0.00 0.00 0.00 91 1014.5
20260906021051 73 0 0.0 0.0 0.00 0.00 0.00 91 1014.5
20260906020550 73 0 0.0 0.0 0.00 0.00 0.00 91 1014.3
20260906020107 73 0 0.0 0.0 0.00 0.00 0.00 91 1014.4
20260906015550 73 0 0.0 0.0 0.00 0.00 0.00 91 1014.5
20260906015050 73 0 0.0 0.0 0.00 0.00 0.00 91 1014.3
20260906014623 73 0 0.0 0.0 0.00 0.00 0.00 91 1014.2
20260906014053 73 0 0.0 0.0 0.00 0.00 0.00 90 1014.2
20260906013551 73 0 0.0 0.0 0.00 0.00 0.00 90 1014.1
20260906013100 73 0 0.0 0.0 0.00 0.00 0.00 90 1014.1
20260906012552 73 0 0.0 0.0 0.00 0.00 0.00 90 1013.9
20260906012054 73 0 0.0 0.0 0.00 0.00 0.00 90 1014.0
20260906011605 73 0 0.0 0.0 0.00 0.00 0.00 89 1013.8
20260906011050 74 0 0.0 0.0 0.00 0.00 0.00 89 1014.0
20260906010555 74 0 0.0 0.0 0.00 0.00 0.00 89 1013.9
20260906010109 74 0 0.0 0.0 0.00 0.00 0.00 89 1013.8
20260906005554 74 0 0.0 0.0 0.00 0.00 0.00 89 1013.8
20260906005054 75 0 0.0 0.0 0.00 0.00 0.00 89 1013.8
20260906004606 75 0 0.0 0.0 0.00 0.00 0.00 88 1013.7
20260906004054 75 0 0.0 0.0 0.00 0.00 0.00 88 1013.6
20260906003554 75 0 0.0 0.0 0.00 0.00 0.00 86 1013.6
20260906003108 75 0 0.0 0.0 0.00 0.00 0.00 86 1013.5
20260906002555 75 0 0.0 0.0 0.00 0.00 0.00 85 1013.6
20260906002055 75 0 0.0 0.0 0.00 0.00 0.00 85 1013.6
20260906001606 75 0 0.0 0.0 0.00 0.00 0.00 84 1013.7
20260906001056 76 0 0.0 0.0 0.00 0.00 0.00 84 1013.6
20260906000554 76 0 0.0 0.0 0.00 0.00 0.00 83 1013.7
20260906000110 76 0 0.0 0.0 0.00 0.00 0.00 83 1013.7
20260905235556 76 0 0.0 0.0 0.00 0.00 0.00 83 1013.7